Location: Mentone
(34.5413°N, 85.5351°W)
Time: 14:53:04
(UTC-05:00)

ATLAS 5 CENTAUR R/B - Visible Passes

Search period start: 21 October 2014 00:00
Search period end: 31 October 2014 00:00
Orbit: 714 x 949 km, 63.4° (Epoch: 19 October)

Date Brightness Start Highest point End Pass type
(mag) Time Alt. Az. Time Alt. Az. Time Alt. Az.
21 Oct 2.5 19:41:46 10° NNW 19:47:42 54° NE 19:48:44 49° E visible
21 Oct 4.5 21:27:28 10° WNW 21:30:22 20° W 21:30:22 20° W visible
22 Oct 2.5 19:23:13 10° NNW 19:29:06 51° NE 19:31:45 32° ESE visible
22 Oct 4.2 21:08:46 10° WNW 21:13:25 24° WSW 21:13:25 24° WSW visible
23 Oct 2.6 19:04:39 10° NNW 19:10:30 49° NE 19:15:05 17° SE visible
23 Oct 4.2 20:50:04 10° WNW 20:55:00 26° WSW 20:56:46 23° SW visible
24 Oct 2.7 18:46:06 10° NNW 18:51:54 46° NE 18:57:52 10° SE visible
24 Oct 4.2 20:31:23 10° NW 20:36:26 27° WSW 20:40:37 14° SSW visible
25 Oct 2.7 18:27:33 10° NNW 18:33:17 44° NE 18:39:12 10° SE visible
25 Oct 4.1 20:12:42 10° NW 20:17:52 29° WSW 20:23:08 10° S visible
26 Oct 4.1 19:54:02 10° NW 19:59:18 31° WSW 20:04:41 10° S visible
27 Oct 4.1 19:35:22 10° NW 19:40:44 33° WSW 19:46:13 10° S visible
28 Oct 4.0 19:16:42 10° NW 19:22:10 35° WSW 19:27:44 10° S visible
29 Oct 4.0 18:58:03 10° NW 19:03:35 37° WSW 19:09:15 10° S visible
30 Oct 4.0 18:39:24 10° NW 18:45:01 39° WSW 18:50:45 10° S visible
